User: anonymous   Login
Location: Unspecified
(0.0000°N, 0.0000°E)
Time: 20:06:51
(UTC+00:00)
Language:

Tiros 1 - Orbit

View from above orbital plane
View from above orbital plane
View from above satellite
View from above satellite

Ground track
Ground track

The orbit data is extracted from the following two-line orbital elements,

1 00029U 60002B   17328.49805444 -.00000056  00000-0  22718-4 0  9994
2 00029  48.3810  45.2076 0024345 190.0488 169.9940 14.74212005 80551
Epoch (UTC): 24 November 2017 11:57:11
Eccentricity: 0.0024345
inclination: 48.3810°
perigee height: 630 km
apogee height: 665 km
right ascension of ascending node: 45.2076°
argument of perigee: 190.0488°
revolutions per day: 14.74212005
mean anomaly at epoch: 169.9940°
orbit number at epoch: 8055

The dashed part of the orbit path shows where the satellite is in the earth's shadow,  

DLR